• In Uzbekistan
  • List of Countries
  • For 7 days
  • Water Temperature
  • Satellite Maps
  • Weather Map
  • Weather Widgets
  • user-avatar
    Login

    Hourly Weather Haiger

    Today, 19 October, Thursday

    Time Temperature Precipitation Wind Pressure Humidity
    00:00 +11°C° 0 mm 1 mps 726 mmHg 90%
    01:00 +11°C° 0 mm 1 mps 726 mmHg 90%
    02:00 +10°C° 0 mm 1 mps 726 mmHg 90%
    03:00 +10°C° 0 mm 1 mps 726 mmHg 89%
    04:00 +10°C° 0 mm 1 mps 726 mmHg 89%
    05:00 +10°C° 0 mm 1 mps 726 mmHg 88%
    06:00 +9°C° 0 mm 1 mps 726 mmHg 88%
    07:00 +9°C° 0 mm 1 mps 726 mmHg 88%
    08:00 +11°C° 0 mm 1 mps 726 mmHg 81%
    09:00 +13°C° 0 mm 1 mps 726 mmHg 74%
    10:00 +15°C° 0 mm 2 mps 726 mmHg 68%
    11:00 +16°C° 0 mm 2 mps 726 mmHg 65%
    12:00 +17°C° 0 mm 2 mps 726 mmHg 62%
    13:00 +19°C° 0 mm 3 mps 726 mmHg 59%
    14:00 +19°C° 0 mm 3 mps 726 mmHg 61%
    15:00 +19°C° 0 mm 2 mps 726 mmHg 64%
    16:00 +18°C° 0 mm 2 mps 725 mmHg 67%
    17:00 +17°C° 0 mm 2 mps 725 mmHg 71%
    18:00 +15°C° 0 mm 2 mps 725 mmHg 76%
    19:00 +14°C° 0 mm 2 mps 725 mmHg 81%
    20:00 +13°C° 0 mm 2 mps 725 mmHg 80%
    21:00 +13°C° 0 mm 2 mps 726 mmHg 79%
    22:00 +13°C° 0 mm 2 mps 726 mmHg 78%
    23:00 +13°C° 0 mm 2 mps 726 mmHg 76%

    Tomorrow, 20 October, Friday

    Time Temperature Precipitation Wind Pressure Humidity
    00:00 +13°C° 0 mm 2 mps 726 mmHg 73%
    01:00 +13°C° 0 mm 2 mps 726 mmHg 71%
    02:00 +13°C° 0 mm 2 mps 726 mmHg 72%
    03:00 +13°C° 0 mm 2 mps 726 mmHg 72%
    04:00 +13°C° 0 mm 2 mps 726 mmHg 73%
    05:00 +12°C° 0.2 mm 2 mps 726 mmHg 76%
    06:00 +12°C° 0.2 mm 2 mps 726 mmHg 79%
    07:00 +10°C° 0.2 mm 2 mps 726 mmHg 82%
    08:00 +12°C° 1.3 mm 2 mps 726 mmHg 85%
    09:00 +11°C° 1.3 mm 3 mps 727 mmHg 88%
    10:00 +12°C° 1.3 mm 3 mps 727 mmHg 90%
    11:00 +12°C° 0.4 mm 3 mps 727 mmHg 89%
    12:00 +13°C° 0.4 mm 3 mps 727 mmHg 87%
    13:00 +13°C° 0.4 mm 4 mps 728 mmHg 85%
    14:00 +14°C° 0.1 mm 3 mps 728 mmHg 82%
    15:00 +14°C° 0.1 mm 3 mps 728 mmHg 79%
    16:00 +14°C° 0.1 mm 3 mps 728 mmHg 76%
    17:00 +13°C° 0 mm 2 mps 728 mmHg 80%
    18:00 +12°C° 0 mm 2 mps 728 mmHg 84%
    19:00 +9°C° 0 mm 2 mps 728 mmHg 87%
    20:00 +9°C° 0 mm 2 mps 728 mmHg 88%
    21:00 +9°C° 0 mm 1 mps 728 mmHg 89%
    22:00 +9°C° 0 mm 1 mps 728 mmHg 90%
    23:00 +9°C° 0 mm 1 mps 728 mmHg 90%

    Day after tomorrow, 21 October, Saturday

    Time Temperature Precipitation Wind Pressure Humidity
    00:00 +9°C° 0 mm 1 mps 728 mmHg 90%
    01:00 +9°C° 0 mm 1 mps 728 mmHg 90%
    02:00 +9°C° 0 mm 2 mps 728 mmHg 92%
    03:00 +9°C° 0 mm 2 mps 728 mmHg 94%
    04:00 +10°C° 0 mm 2 mps 727 mmHg 96%
    05:00 +10°C° 0 mm 2 mps 727 mmHg 95%
    06:00 +10°C° 0 mm 2 mps 727 mmHg 95%
    07:00 +10°C° 0 mm 3 mps 727 mmHg 95%
    08:00 +11°C° 0 mm 3 mps 727 mmHg 91%
    09:00 +12°C° 0 mm 3 mps 727 mmHg 88%
    10:00 +14°C° 0 mm 4 mps 727 mmHg 84%
    11:00 +14°C° 0.1 mm 4 mps 727 mmHg 84%
    12:00 +14°C° 0.1 mm 4 mps 727 mmHg 85%
    13:00 +14°C° 0.1 mm 3 mps 727 mmHg 85%
    14:00 +13°C° 0.9 mm 4 mps 727 mmHg 87%
    15:00 +13°C° 0.9 mm 4 mps 727 mmHg 88%
    16:00 +12°C° 0.9 mm 4 mps 727 mmHg 90%
    17:00 +12°C° 0.2 mm 4 mps 727 mmHg 90%
    18:00 +11°C° 0.2 mm 4 mps 727 mmHg 90%
    19:00 +10°C° 0.2 mm 4 mps 727 mmHg 90%
    20:00 +10°C° 0 mm 4 mps 728 mmHg 89%
    21:00 +8°C° 0 mm 4 mps 728 mmHg 89%
    22:00 +8°C° 0 mm 4 mps 728 mmHg 89%
    23:00 +7°C° 0 mm 4 mps 728 mmHg 89%

    22 October, Sunday

    Time Temperature Precipitation Wind Pressure Humidity
    00:00 +7°C° 0 mm 4 mps 728 mmHg 89%
    01:00 +6°C° 0 mm 4 mps 728 mmHg 89%
    02:00 +6°C° 0 mm 4 mps 728 mmHg 89%
    03:00 +6°C° 0 mm 4 mps 727 mmHg 89%
    04:00 +5°C° 0 mm 4 mps 727 mmHg 89%
    05:00 +5°C° 0 mm 4 mps 727 mmHg 89%
    06:00 +5°C° 0 mm 4 mps 727 mmHg 89%
    07:00 +5°C° 0 mm 4 mps 727 mmHg 89%
    08:00 +5°C° 0 mm 4 mps 727 mmHg 86%
    09:00 +6°C° 0 mm 5 mps 728 mmHg 82%
    10:00 +7°C° 0 mm 5 mps 728 mmHg 79%
    11:00 +7°C° 0.1 mm 5 mps 728 mmHg 78%
    12:00 +7°C° 0.1 mm 5 mps 728 mmHg 78%
    13:00 +7°C° 0.1 mm 5 mps 728 mmHg 78%
    14:00 +7°C° 0.2 mm 5 mps 728 mmHg 79%
    15:00 +7°C° 0.2 mm 5 mps 728 mmHg 80%
    16:00 +7°C° 0.2 mm 5 mps 728 mmHg 81%
    17:00 +7°C° 0.1 mm 4 mps 728 mmHg 83%
    18:00 +6°C° 0.1 mm 4 mps 728 mmHg 85%
    19:00 +6°C° 0.1 mm 4 mps 729 mmHg 88%
    20:00 +5°C° 0.2 mm 4 mps 729 mmHg 89%
    21:00 +5°C° 0.2 mm 4 mps 729 mmHg 90%
    22:00 +5°C° 0.2 mm 4 mps 729 mmHg 91%
    23:00 +6°C° 0.4 mm 4 mps 729 mmHg 91%

    23 October, Monday

    Time Temperature Precipitation Wind Pressure Humidity
    00:00 +6°C° 0.4 mm 4 mps 729 mmHg 92%
    01:00 +6°C° 0.4 mm 4 mps 729 mmHg 92%
    02:00 +6°C° 0.3 mm 4 mps 729 mmHg 92%
    03:00 +6°C° 0.3 mm 4 mps 730 mmHg 92%
    04:00 +7°C° 0.3 mm 4 mps 730 mmHg 92%
    05:00 +6°C° 0.1 mm 4 mps 730 mmHg 92%
    06:00 +6°C° 0.1 mm 4 mps 731 mmHg 92%
    07:00 +7°C° 0.1 mm 3 mps 731 mmHg 92%
    08:00 +8°C° 0 mm 3 mps 731 mmHg 90%
    09:00 +8°C° 0 mm 3 mps 732 mmHg 89%
    10:00 +9°C° 0 mm 3 mps 732 mmHg 87%
    11:00 +9°C° 0 mm 3 mps 732 mmHg 86%
    12:00 +10°C° 0 mm 3 mps 733 mmHg 85%
    13:00 +10°C° 0 mm 3 mps 733 mmHg 84%
    14:00 +10°C° 0.2 mm 3 mps 733 mmHg 86%
    15:00 +10°C° 0.2 mm 3 mps 733 mmHg 88%
    16:00 +10°C° 0.2 mm 3 mps 733 mmHg 90%
    17:00 +10°C° 0.3 mm 3 mps 733 mmHg 91%
    18:00 +9°C° 0.3 mm 3 mps 733 mmHg 92%
    19:00 +9°C° 0.3 mm 3 mps 733 mmHg 94%
    20:00 +9°C° 0.1 mm 3 mps 734 mmHg 94%
    21:00 +8°C° 0.1 mm 3 mps 734 mmHg 94%
    22:00 +8°C° 0.1 mm 3 mps 734 mmHg 94%
    23:00 +8°C° 0 mm 3 mps 734 mmHg 94%

    24 October, Tuesday

    Time Temperature Precipitation Wind Pressure Humidity
    00:00 +8°C° 0 mm 3 mps 734 mmHg 94%
    01:00 +9°C° 0 mm 3 mps 734 mmHg 94%
    02:00 +9°C° 0.1 mm 3 mps 734 mmHg 94%
    03:00 +9°C° 0.1 mm 3 mps 734 mmHg 95%
    04:00 +9°C° 0.1 mm 3 mps 734 mmHg 95%
    05:00 +9°C° 0.2 mm 3 mps 734 mmHg 94%
    06:00 +9°C° 0.2 mm 3 mps 734 mmHg 94%
    07:00 +9°C° 0.2 mm 3 mps 734 mmHg 94%
    08:00 +9°C° 0.1 mm 3 mps 734 mmHg 92%
    09:00 +10°C° 0.1 mm 3 mps 734 mmHg 90%
    10:00 +10°C° 0.1 mm 3 mps 735 mmHg 88%
    11:00 +12°C° 0 mm 3 mps 735 mmHg 84%
    12:00 +13°C° 0 mm 3 mps 734 mmHg 80%
    13:00 +14°C° 0 mm 3 mps 734 mmHg 76%
    14:00 +14°C° 0 mm 3 mps 734 mmHg 76%
    15:00 +14°C° 0 mm 3 mps 734 mmHg 76%
    16:00 +15°C° 0 mm 2 mps 734 mmHg 76%
    17:00 +14°C° 0 mm 2 mps 734 mmHg 80%
    18:00 +12°C° 0 mm 2 mps 734 mmHg 84%
    19:00 +10°C° 0 mm 2 mps 734 mmHg 88%
    20:00 +10°C° 0 mm 2 mps 734 mmHg 89%
    21:00 +10°C° 0 mm 1 mps 734 mmHg 90%
    22:00 +10°C° 0 mm 1 mps 734 mmHg 91%
    23:00 +9°C° 0 mm 1 mps 734 mmHg 91%
    Show more